This is the latest recevied weather packets stored in our database for station/object SP2WPY-13. If no packets are shown the sender has not sent any weather packets the latest 10 day(s).
| Time | Temp. | Humidity | Pressure | Rain* | Wind** | Luminosity | Snow |
|---|---|---|---|---|---|---|---|
| 1787956218 | 17.78° C | 81% | 1014.4 hPa | - | - | - | - |
| 1787955945 | 18.33° C | 77% | 1014.4 hPa | - | - | - | - |
| 1787955625 | 18.89° C | 72% | 1014.5 hPa | - | - | - | - |
| 1787955304 | 19.44° C | 66% | 1014.8 hPa | - | - | - | - |
| 1787955031 | 19.44° C | 65% | 1015 hPa | - | - | - | - |
| 1787954710 | 19.44° C | 64% | 1014.9 hPa | - | - | - | - |
| 1787954437 | 19.44° C | 63% | 1014.8 hPa | - | - | - | - |
| 1787954118 | 19.44° C | 63% | 1014.7 hPa | - | - | - | - |
| 1787953844 | 19.44° C | 63% | 1014.7 hPa | - | - | - | - |
| 1787953525 | 19.44° C | 64% | 1014.7 hPa | - | - | - | - |
| 1787953204 | 19.44° C | 64% | 1014.7 hPa | - | - | - | - |
| 1787952930 | 19.44° C | 64% | 1014.7 hPa | - | - | - | - |
| 1787952611 | 19.44° C | 64% | 1014.7 hPa | - | - | - | - |
| 1787952337 | 19.44° C | 64% | 1014.7 hPa | - | - | - | - |
| 1787952017 | 19.44° C | 65% | 1014.7 hPa | - | - | - | - |
| 1787951743 | 19.44° C | 65% | 1014.8 hPa | - | - | - | - |
| 1787951424 | 19.44° C | 65% | 1014.9 hPa | - | - | - | - |
| 1787951103 | 19.44° C | 65% | 1014.9 hPa | - | - | - | - |
| 1787950829 | 19.44° C | 64% | 1014.9 hPa | - | - | - | - |
| 1787950509 | 19.44° C | 65% | 1015.1 hPa | - | - | - | - |
| 1787950234 | 19.44° C | 66% | 1015 hPa | - | - | - | - |
| 1787949914 | 19.44° C | 66% | 1015.1 hPa | - | - | - | - |
| 1787949640 | 19.44° C | 67% | 1015 hPa | - | - | - | - |
| 1787949320 | 19.44° C | 67% | 1015.1 hPa | - | - | - | - |
| 1787949045 | 19.44° C | 67% | 1015.1 hPa | - | - | - | - |
* Rain since midnight (hover to see other rain measurements)
** Current wind speed in m/s (hover to see current wind gust speed)